SCP
0 0 0 0 0 0 0 0 0 0 0 0 0 0 0 0 0 0 0 0 0 0 0 0 0 0 0 0 0 0 0 0 0 0 0 0 0 0 0 0 0 0 0
0 0 0 0 0 0 0 0 0 0 0 0 0 0 0 0 0 0 0 0 0 0 0 0 0 0 0 0 0 0 0 0 0 0 0 0 0 0 0 0 0 0 0
0 0 0 0 0 0 0 0 0 0 0 0 0 0 0 0 0 0 0 0 0 0 0 0 0 0 0 0 0 0 0 0 0 0 0 0 0 0 0 0 0 0 0
0 0 0 0 0 0 0 0 0 0 0 0 0 0 0 0 0 0 0 0 0 0 0 0 0 0 0 0 0 0 0 0 0 0 0 0 0 0 0 0 0 0 0
0 0 0 0 0 0 0 0 0 0 0 0 0 0 0 0 0 0 0 0 0 0 0 0 0 0 0 0 0 0 0 0 0 0 0 0 0 0 0 0 0 0 0
0 0 0 0 0 0 0 0 0 0 0 0 0 0 0 0 0 0 0 0 0 0 0 0 0 0 0 0 0 0 0 0 0 0 0 0 0 0 0 0 0 0 0
0 0 0 0 0 0 0 0 0 0 0 0 0 0 0 0 0 0 0 0 0 0 0 0 0 0 0 0 0 0 0 0 0 0 0 0 0 0 0 0 0 0 0
0 0 0 0 0 0 0 0 0 0 0 0 0 0 0 0 0 0 0 0 0 0 0 0 0 0 0 0 0 0 0 0 0 0 0 0 0 0 0 0 0 0 0
0 0 0 0 0 0 0 0 0 0 0 0 0 0 0 0 0 0 0 0 0 0 0 0 0 0 0 0 0 0 0 0 0 0 0 0 0 0 0 0 0 0 0
0 0 0 0 0 0 0 0 0 0 0 0 0 0 0 0 0 0 0 0 0 0 0 0 0 0 0 0 0 0 0 0 0 0 0 0 0 0 0 0 0 0 0
0 0 0 0 0 0 0 0 0 0 0 0 0 0 0 0 0 0 0 0 0 0 0 0 0 0 0 0 0 0 0 0 0 0 0 0 0 0 0 0 0 0 0
0 0 0 0 0 0 0 0 0 0 0 0 0 0 0 0 0 0 0 0 0 0 0 0 0 0 0 0 0 0 0 0 0 0 0 0 0 0 0 0 0 0 0
0 0 0 0 0 0 0 0 0 0 0 0 0 0 0 0 0 0 0 0 0 0 0 0 0 0 0 0 0 0 0 0 0 0 0 0 0 0 0 0 0 0 0
0 0 0 0 0 0 0 0 0 0 0 0 0 0 0 0 0 0 0 0 0 0 0 0 0 0 0 0 0 0 0 0 0 0 0 0 0 0 0 0 0 0 0
0 0 0 0 0 0 0 0 0 0 0 0 0 0 0 0 0 0 0 0 0 0 0 0 0 0 0 0 0 0 0 0 0 0 0 0 0 0 0 0 0 0 0
0 0 0 0 0 0 0 0 0 0 0 0 0 0 0 0 0 0 0 0 0 0 0 0 0 0 0 0 0 0 0 0 0 0 0 0 0 0 0 0 0 0 0
0 0 0 0 0 0 0 0 0 0 0 0 0 0 0 0 0 0 0 0 0 0 0 0 0 0 0 0 0 0 0 0 0 0 0 0 0 0 0 0 0 0 0
0 0 0 0 0 0 0 0 0 0 0 0 0 0 0 0 0 0 0 0 0 0 0 0 0 0 0 0 0 0 0 0 0 0 0 0 0 0 0 0 0 0 0
0 0 0 0 0 0 0 0 0 0 0 0 0 0 0 0 0 0 0 0 0 0 0 0 0 0 0 0 0 0 0 0 0 0 0 0 0 0 0 0 0 0 0
0 0 0 0 0 0 0 0 0 0 0 0 0 0 0 0 0 0 0 0 0 0 0 0 0 0 0 0 0 0 0 0 0 0 0 0 0 0 0 0 0 0 0
0 0 0 0 0 0 0 0 0 0 0 0 0 0 0 0 0 0 0 0 0 0 0 0 0 0 0 0 0 0 0 0 0 0 0 0 0 0 0 0 0 0 0
0 0 0 0 0 0 0 0 0 0 0 0 0 0 0 0 0 0 0 0 0 0 0 0 0 0 0 0 0 0 0 0 0 0 0 0 0 0 0 0 0 0 0
0 0 0 0 0 0 0 0 0 0 0 0 0 0 0 0 0 0 0 0 0 0 0 0 0 0 0 0 0 0 0 0 0 0 0 0 0 0 0 0 0 0 0
0 0 0 0 0 0 0 0 0 0 0 0 0 0 0 0 0 0 0 0 0 0 0 0 0 0 0 0 0 0 0 0 0 0 0 0 0 0 0 0 0 0 0
0 0 0 0 0 0 0 0 0 0 0 0 0 0 0 0 0 0 0 0 0 0 0 0 0 0 0 0 0 0 0 0 0 0 0 0 0 0 0 0 0 0 0
0 0 0 0 0 0 0 0 0 0 0 0 0 0 0 0 0 0 0 0 0 0 0 0 0 0 0 0 0 0 0 0 0 0 0 0 0 0 0 0 0 0 0
Wind_Speed
4 4 3 3 5 6 7 7 7 7 7 7 8 8 8 8 8 8 9 10 10 10 11 11 11 12 12 12 13 13 14 14 14 14 14 14 14 15 14 12 12 13 16
4 5 4 4 5 7 7 7 7 7 7 7 8 8 8 8 8 9 9 9 10 10 11 11 11 12 13 13 14 14 13 14 14 12 11 12 13 14 14 13 13 12 16
4 5 6 5 6 7 7 7 7 7 7 7 7 7 7 8 8 8 9 9 9 10 10 12 11 12 13 14 14 14 13 13 12 9 8 10 12 13 14 14 14 15 15
4 5 5 5 6 7 8 8 8 7 7 7 7 7 7 7 8 8 8 8 9 10 10 11 11 12 13 13 13 13 12 12 9 6 7 9 10 13 14 14 14 15 15
4 4 5 5 6 7 8 8 8 7 6 7 7 7 7 7 8 8 8 8 9 9 10 11 11 12 12 12 12 12 12 10 7 7 9 9 9 12 13 13 14 14 14
4 4 5 5 6 7 7 8 8 7 7 7 7 7 7 7 8 8 8 8 9 9 10 11 11 11 11 11 12 12 11 8 6 8 9 9 9 12 13 13 14 14 14
3 3 5 5 6 6 6 7 7 7 7 7 7 7 7 7 8 8 8 8 8 9 10 10 11 11 11 11 11 11 10 7 7 8 8 9 10 13 13 13 13 13 14
4 3 3 5 5 6 6 6 7 7 7 7 7 7 7 7 8 8 8 8 8 9 10 10 11 11 11 10 11 10 9 6 7 8 8 9 11 13 14 14 13 14 14
4 4 3 3 4 5 6 6 7 7 7 7 8 8 7 7 8 8 8 8 9 9 10 10 10 10 10 10 10 10 8 6 7 6 7 7 10 13 13 14 14 14 14
4 3 3 3 3 3 4 6 6 7 7 7 8 8 7 7 8 8 7 8 9 9 9 10 10 10 10 10 10 8 6 4 7 6 5 7 10 12 13 13 14 14 14
3 2 2 3 3 3 3 4 5 6 7 7 6 7 5 5 5 5 7 8 9 9 9 10 10 10 9 9 8 6 3 4 6 5 5 8 10 11 12 13 14 14 14
2 2 2 2 2 2 2 2 3 3 4 4 4 4 3 4 4 4 8 9 9 9 9 10 10 8 5 5 5 3 3 5 5 5 6 9 10 11 11 12 13 14 14
4 2 1 2 2 2 1 1 1 2 2 3 4 4 3 3 3 3 3 4 5 5 5 6 5 4 4 3 3 3 4 3 3 4 6 8 9 10 11 11 12 13 13
4 3 1 2 2 2 2 1 2 2 2 2 3 4 3 3 3 3 2 3 3 2 3 3 3 5 5 5 5 5 5 3 3 3 5 8 8 9 10 10 11 11 12
4 3 2 2 1 2 2 1 1 2 2 2 2 3 3 3 3 3 2 2 2 2 3 3 4 5 5 5 5 5 5 5 4 4 4 8 8 8 9 10 10 11 11
4 3 2 2 2 2 2 1 1 2 2 2 2 2 3 3 3 3 3 2 2 3 3 3 4 4 4 4 5 5 5 5 5 4 4 5 8 8 8 9 9 10 10
4 4 3 3 2 2 3 2 1 2 2 3 2 3 3 3 3 3 3 2 2 3 4 4 5 4 4 4 5 5 4 5 5 5 4 3 4 7 7 8 8 8 8
4 4 3 2 3 2 2 2 2 2 2 2 3 2 3 3 3 3 3 3 3 3 3 4 4 4 4 4 3 3 3 4 5 4 4 3 3 3 5 8 7 7 7
3 3 3 3 3 3 2 2 2 1 2 2 3 2 2 3 3 3 2 2 3 3 3 3 4 4 4 4 3 3 3 3 3 3 4 3 3 3 3 5 6 6 6
3 3 3 2 2 2 2 2 2 1 2 1 2 3 3 2 3 3 2 3 3 3 3 4 4 4 4 4 4 3 3 2 2 2 2 2 2 3 3 3 3 4 5
2 3 3 2 2 2 2 2 2 1 1 1 2 3 3 3 3 3 2 3 3 3 4 5 4 5 4 4 3 3 2 2 1 1 1 1 2 2 2 2 2 1 2
3 3 3 3 3 3 2 2 1 1 1 1 1 3 3 3 3 2 3 2 3 3 4 5 5 4 3 3 3 3 2 2 1 1 1 0 0 1 1 2 2 1 1
2 3 3 3 3 3 3 2 2 1 1 2 2 2 3 3 3 2 3 3 3 4 4 5 5 6 5 3 2 2 3 3 2 1 1 0 1 1 1 1 1 1 1
3 3 3 3 3 3 4 4 4 3 3 3 2 2 3 3 3 3 3 3 3 3 4 5 5 4 6 5 3 1 1 1 2 2 2 1 1 1 2 1 1 1 1
2 2 3 3 3 3 4 4 4 4 3 2 3 3 3 3 3 3 3 3 3 3 4 5 5 5 4 5 4 3 2 2 2 2 3 2 2 2 2 2 2 2 2
1 2 2 3 3 3 4 4 5 5 4 3 4 3 3 3 3 3 3 3 3 3 4 5 5 6 5 5 4 4 3 3 4 3 3 3 2 2 2 2 2 2 2
Wind_Direction
157 155 165 153 134 126 122 119 116 117 115 113 110 107 102 97 92 91 90 88 89 88 85 86 85 85 87 86 86 83 83 83 83 81 79 80 82 82 80 77 82 82 79
147 155 151 137 133 132 127 121 115 117 116 113 110 108 104 100 96 93 91 89 88 89 87 87 87 87 87 85 84 82 82 82 81 79 83 84 81 82 80 73 70 81 80
142 151 150 131 127 130 126 122 116 113 114 112 111 110 106 101 98 96 94 90 89 90 89 89 87 88 87 86 84 82 80 82 81 81 89 89 85 82 84 81 80 84 83
138 145 145 124 120 125 124 121 118 115 113 111 111 109 108 104 100 97 93 91 91 92 92 90 86 86 85 85 85 84 82 80 76 86 88 86 87 84 84 84 84 85 83
133 139 130 117 117 118 121 120 118 117 113 112 111 108 106 104 103 100 93 92 93 93 94 93 90 87 88 87 86 85 83 79 71 83 85 86 87 87 86 84 85 85 85
126 132 128 115 118 113 114 118 117 118 115 113 114 111 108 105 102 100 95 93 94 94 97 97 95 92 90 88 86 84 81 74 85 84 86 86 87 88 88 87 85 85 85
105 119 131 114 117 116 114 118 117 114 110 108 111 113 111 108 104 101 97 94 93 97 99 103 101 98 93 91 89 84 75 61 80 85 84 84 84 87 89 88 87 87 85
105 92 118 116 112 112 114 112 116 112 108 103 101 107 107 106 104 101 101 97 94 99 102 105 103 101 98 95 91 84 73 67 83 84 84 85 85 89 90 89 88 87 86
95 91 86 106 128 115 109 107 110 109 102 94 89 90 90 96 100 100 99 97 95 97 102 104 102 100 98 96 93 85 73 58 83 81 84 85 86 89 89 89 89 87 86
92 88 80 78 102 133 129 105 101 105 99 94 87 84 85 87 93 94 95 96 95 94 99 101 101 98 95 92 90 85 78 85 85 81 82 86 86 89 89 89 89 89 87
90 88 91 85 88 93 122 110 104 102 98 101 96 87 95 105 104 101 89 90 91 92 93 98 98 95 94 90 84 83 91 90 90 83 82 83 89 90 89 89 89 88 87
143 116 103 98 93 94 91 124 127 122 119 119 120 118 116 107 94 93 86 82 84 89 92 92 91 97 99 106 96 99 99 95 89 85 80 82 90 92 92 90 89 87 87
172 161 149 125 112 107 102 108 120 123 122 123 123 119 116 110 105 106 109 101 98 97 99 100 101 96 92 100 107 100 95 93 87 86 77 76 90 95 94 93 92 90 88
181 181 174 148 127 121 126 129 136 133 132 128 130 130 129 118 111 111 113 114 114 109 105 100 94 94 92 98 105 101 95 88 87 84 72 64 80 98 101 98 95 94 92
189 186 185 175 144 122 126 142 143 145 139 131 133 137 133 129 124 119 110 113 116 113 114 109 105 100 96 93 94 97 98 93 88 88 82 64 68 90 103 103 98 96 95
203 197 189 188 173 150 132 149 147 147 140 136 131 137 137 132 130 126 118 114 117 115 113 115 113 108 100 92 89 89 91 91 85 83 89 79 63 71 91 97 98 98 97
206 202 196 191 182 172 155 149 138 139 147 138 130 141 142 136 138 132 133 124 117 120 121 117 114 111 101 94 88 81 79 80 88 84 80 82 82 66 70 85 92 95 95
203 199 194 186 183 178 156 151 135 142 146 140 134 136 144 142 138 136 138 133 131 137 136 127 128 121 113 105 96 81 75 73 76 77 77 76 78 80 75 71 77 84 92
196 195 188 185 182 177 158 151 137 145 143 140 139 136 136 144 141 135 138 139 140 144 142 135 135 134 125 116 103 87 76 72 72 78 79 71 69 73 83 82 73 67 78
187 183 179 179 179 171 154 142 141 144 148 142 148 139 138 140 138 129 141 148 142 144 147 143 140 131 127 120 104 85 69 64 66 72 82 83 78 81 81 81 88 75 68
178 184 185 180 178 169 162 161 175 186 177 160 163 150 149 148 144 139 137 155 150 151 155 149 140 138 135 137 127 109 80 63 66 67 70 87 86 80 87 82 71 76 88
189 193 197 197 186 185 183 177 188 187 210 178 173 166 162 161 156 154 153 159 157 153 158 158 154 151 149 175 167 155 159 167 130 54 56 77 108 115 109 102 97 81 79
212 211 210 209 198 192 179 152 145 159 173 176 196 183 183 174 166 173 165 157 170 169 171 171 171 172 168 184 209 199 182 186 150 167 181 211 217 198 164 141 148 148 149
235 229 224 218 206 190 178 167 168 197 208 207 203 204 190 180 177 188 172 172 174 180 179 179 179 183 178 180 187 234 269 143 177 170 180 192 221 238 227 210 214 202 204
233 227 222 217 207 192 184 178 183 207 221 216 192 200 189 187 191 189 183 183 181 185 187 184 183 188 194 194 187 178 176 180 201 201 200 189 201 223 243 240 237 229 217
229 220 220 217 212 201 195 191 190 203 208 207 198 205 200 189 191 193 194 197 194 190 198 192 190 193 196 197 197 194 190 192 187 198 203 202 214 206 229 240 243 235 226